Weather History for Pompano Beach, FL

Change the Weather History Date:

Thursday, January 10, 2013

  Actual Average Record
Temperature  
Mean Temperature 76 °F -  
Max Temperature 79 °F 77 °F 84 °F (1971)
Min Temperature 73 °F 59 °F 33 °F (1956)
Cooling Degree Days 11    
Growing Degree Days 26 (Base 50)    
Moisture  
Dew Point 66 °F    
Average Humidity 72    
Maximum Humidity 87    
Minimum Humidity 56    
Precipitation  
Precipitation 0.02 in - - ()
Sea Level Pressure  
Sea Level Pressure 30.26 in    
Wind  
Wind Speed 15 mph (ESE)    
Max Wind Speed 18 mph    
Max Gust Speed 25 mph    
Visibility 10 miles    
Events Rain    
Averages and records for this station are not official NWS values.
T = Trace of Precipitation, MM = Missing Value Source: NWS Daily Summary

Daily Weather History Graph

Daily Weather History Graph

Search for Another Location

Airport:

Trip Planner

Search our weather history database for the weather conditions in past years. The results will help you decide how hot, cold, wet, or windy it might be!

Date:

Astronomy

Jan. 10, 2013 Rise Set
Actual Time 7:09 AM EST 5:46 PM EST
Civil Twilight 6:44 AM EST 6:11 PM EST
Nautical Twilight 6:16 AM EST 6:40 PM EST
Astronomical Twilight 5:48 AM EST 7:08 PM EST
Moon 5:48 AM EST (1/10) 4:51 PM EST (1/10)
Length of Visible Light 11h 27m
Length of Day
10h 37m
Waning Crescent, 2% of the Moon is Illuminated
Jan 10
Waning Crescent
Jan 11
New
Jan 18
First Quarter
Jan 26
Full
Feb 3
Last Quarter

Hourly Weather History & Observations

Time (EST) Temp. Dew Point Humidity Pressure Visibility Wind Dir Wind Speed Gust Speed Precip Events Conditions
12:53 AM 75.0 °F 71.1 °F 87% 30.28 in 9.0 mi East 17.3 mph - 0.01 in Rain Light Rain
1:01 AM 75.2 °F 69.8 °F 83% 30.27 in 10.0 mi East 18.4 mph - 0.00 in   Mostly Cloudy
1:53 AM 75.0 °F 69.1 °F 82% 30.27 in 10.0 mi ESE 15.0 mph - 0.00 in   Scattered Clouds
2:53 AM 75.0 °F 70.0 °F 84% 30.26 in 10.0 mi East 17.3 mph 23.0 mph 0.01 in   Mostly Cloudy
3:53 AM 75.0 °F 68.0 °F 79% 30.26 in 10.0 mi ESE 16.1 mph 20.7 mph N/A   Scattered Clouds
4:53 AM 73.9 °F 66.9 °F 79% 30.26 in 10.0 mi ESE 12.7 mph - N/A   Clear
5:53 AM 73.9 °F 66.9 °F 79% 30.26 in 10.0 mi ESE 11.5 mph - N/A   Scattered Clouds
6:53 AM 73.9 °F 66.9 °F 79% 30.27 in 10.0 mi ESE 13.8 mph - N/A   Scattered Clouds
7:53 AM 75.0 °F 66.0 °F 73% 30.29 in 10.0 mi ESE 15.0 mph - N/A   Partly Cloudy
8:53 AM 75.9 °F 66.0 °F 71% 30.31 in 10.0 mi ESE 11.5 mph - N/A   Clear
9:53 AM 78.1 °F 66.0 °F 66% 30.30 in 10.0 mi ESE 13.8 mph - N/A   Partly Cloudy
10:53 AM 79.0 °F 66.0 °F 64% 30.28 in 10.0 mi ESE 16.1 mph - N/A   Partly Cloudy
11:53 AM 79.0 °F 63.0 °F 58% 30.25 in 10.0 mi ESE 16.1 mph 25.3 mph N/A   Clear
12:53 PM 79.0 °F 62.1 °F 56% 30.22 in 10.0 mi ESE 16.1 mph 25.3 mph N/A   Scattered Clouds
1:53 PM 79.0 °F 62.1 °F 56% 30.19 in 10.0 mi East 17.3 mph - N/A   Partly Cloudy
2:53 PM 79.0 °F 63.0 °F 58% 30.21 in 10.0 mi ESE 17.3 mph - N/A   Partly Cloudy
3:53 PM 78.1 °F 66.0 °F 66% 30.23 in 10.0 mi East 13.8 mph - N/A   Scattered Clouds
4:53 PM 77.0 °F 66.0 °F 69% 30.25 in 10.0 mi East 11.5 mph - N/A   Mostly Cloudy
5:53 PM 75.9 °F 66.0 °F 71% 30.26 in 10.0 mi East 8.1 mph - N/A   Scattered Clouds
6:53 PM 75.9 °F 64.9 °F 69% 30.26 in 10.0 mi East 13.8 mph - N/A   Clear
7:53 PM 75.0 °F 66.0 °F 73% 30.27 in 10.0 mi East 11.5 mph - N/A   Clear
8:53 PM 75.9 °F 66.0 °F 71% 30.26 in 10.0 mi East 12.7 mph - N/A   Partly Cloudy
9:53 PM 75.9 °F 66.9 °F 74% 30.26 in 10.0 mi East 13.8 mph - N/A   Scattered Clouds
11:53 PM 75.0 °F 68.0 °F 79% 30.26 in 10.0 mi ESE 17.3 mph - 0.00 in   Partly Cloudy